Wind_Speed
3 2 2 2 2 2 2 3 3 2 2 2 2 2 2 2 2 1 1 1 0 1 1 1 2 3 4 5 6 7 8 9 9 10 10 10 10 10 9 10 11 11 11
5 4 4 4 4 3 3 3 2 2 2 2 1 0 1 1 2 1 1 1 1 1 2 2 3 4 5 5 6 7 8 9 9 10 11 11 11 11 11 11 11 11 11
7 6 6 6 5 5 4 4 3 3 3 2 2 1 1 2 2 2 2 2 2 2 3 4 4 5 5 5 7 7 8 8 9 10 10 11 11 12 12 12 12 12 12
9 9 8 7 6 6 5 4 4 4 3 3 2 2 2 3 3 3 3 4 4 3 4 5 5 5 6 7 8 8 9 9 9 10 10 11 12 12 13 13 13 13 13
10 10 10 9 8 7 7 7 5 5 4 4 4 3 4 4 4 4 4 4 4 5 5 5 5 6 7 8 8 9 9 10 10 10 11 11 12 12 13 13 13 13 13
11 11 11 11 10 9 8 8 7 7 7 6 5 5 5 5 5 5 5 6 6 6 6 7 7 7 8 8 9 9 10 10 11 11 11 12 13 12 13 13 14 14 14
13 13 13 13 12 11 10 10 9 9 9 8 8 7 6 6 6 6 6 7 7 7 7 8 8 8 9 9 9 10 11 11 12 12 12 13 13 13 13 14 14 14 15
16 15 15 14 14 13 13 12 11 12 12 12 11 10 9 9 8 8 8 8 8 9 9 9 10 10 11 11 11 11 12 12 13 14 14 14 15 15 15 15 15 15 16
17 17 16 16 16 15 14 14 13 14 15 14 13 13 13 12 11 10 10 10 10 10 10 11 12 12 12 13 13 14 14 14 15 15 16 16 16 16 17 17 17 18 18
19 18 17 17 18 17 16 16 16 17 17 17 16 15 15 14 14 13 12 12 12 13 13 13 14 14 15 14 15 16 16 16 17 17 18 18 18 18 18 19 19 20 20
20 20 19 19 19 19 18 18 18 18 18 18 17 16 17 17 16 15 15 15 15 15 15 15 16 16 17 17 17 18 18 18 18 19 20 20 20 20 21 21 22 22 22
22 22 22 21 21 21 21 21 20 20 19 19 19 18 18 18 18 17 17 17 17 18 18 18 18 19 19 19 20 20 20 20 21 21 21 21 21 21 22 22 23 23 23
24 24 24 24 23 23 23 23 22 22 21 21 20 19 19 19 19 18 18 19 19 19 20 20 21 21 20 21 22 22 22 22 23 23 23 22 23 23 23 23 23 23 24
25 25 26 26 25 25 25 25 25 24 24 22 22 22 21 21 20 20 20 21 21 21 21 22 22 22 22 22 24 24 24 24 24 25 25 26 26 26 26 25 25 25 25
25 26 26 26 27 26 26 26 26 25 25 24 24 25 24 23 23 23 23 23 23 23 23 24 24 24 25 24 25 26 26 25 26 26 27 27 26 27 27 27 26 26 27
27 27 27 27 27 27 27 27 27 27 27 27 27 26 26 25 25 25 26 26 26 25 26 26 27 26 25 25 26 27 27 27 27 28 28 28 28 28 28 28 28 28 28
28 28 28 29 29 28 29 29 30 30 30 29 28 28 27 27 27 28 28 28 28 28 28 28 28 27 27 27 28 28 28 28 28 29 29 29 29 29 30 30 30 30 30
29 30 30 30 30 30 30 30 31 32 31 30 30 29 29 30 30 31 30 30 31 30 30 30 30 29 28 28 29 29 29 30 30 30 30 31 31 31 31 31 31 31 32
30 31 31 31 31 31 32 32 32 32 32 32 31 31 31 32 32 33 33 33 32 32 31 31 31 31 30 31 31 31 31 31 31 32 32 32 32 32 32 32 33 33 32
31 32 31 32 31 32 32 33 33 33 33 33 33 33 33 34 34 35 35 34 34 33 32 33 32 32 32 33 32 32 32 32 32 33 33 33 33 33 34 34 34 33 33
32 32 32 32 33 33 33 34 34 34 34 34 34 34 34 35 35 35 35 35 36 36 35 35 34 33 33 33 33 33 34 34 34 34 34 33 33 33 33 34 33 33 34
34 33 33 33 33 34 34 34 34 35 35 35 35 35 36 36 36 36 36 36 36 36 35 36 34 33 34 33 33 33 34 34 34 34 34 34 34 33 33 33 33 33 34
34 34 34 33 34 34 35 35 36 36 36 36 36 36 36 37 37 37 37 36 36 35 35 35 34 34 33 33 33 34 35 35 35 34 33 33 33 33 33 33 33 34 34
33 34 34 34 34 35 35 35 36 36 36 36 36 36 37 37 37 37 36 36 36 35 35 35 34 34 34 33 33 34 35 35 33 33 33 33 33 34 34 33 33 33 33
33 34 34 34 34 35 36 36 36 36 35 35 35 36 36 36 37 36 36 36 36 35 35 35 35 35 35 34 34 33 33 32 33 33 33 34 34 34 34 33 33 32 32
32 33 33 34 34 35 35 35 35 35 34 34 34 35 35 35 36 36 35 35 35 35 34 35 35 35 35 35 34 33 33 33 34 34 34 34 35 35 33 32 32 31 31
Wind_Direction
307 295 291 309 323 337 337 346 10 21 22 28 39 52 46 51 68 104 167 179 219 310 280 270 278 272 266 269 267 268 268 267 271 275 277 279 278 277 278 277 279 279 278
295 289 290 298 307 318 314 321 337 347 345 346 354 35 9 4 5 326 267 268 294 291 284 294 291 287 285 280 279 277 276 273 273 276 277 278 279 278 281 283 282 280 280
287 288 298 302 297 299 309 314 319 330 335 337 327 339 311 309 321 340 317 299 302 283 278 290 297 297 302 301 297 293 289 286 280 278 279 282 280 280 281 281 282 282 283
283 282 285 289 288 284 288 295 300 307 314 311 303 296 295 305 312 320 335 337 332 322 308 301 306 306 306 305 301 300 297 290 284 282 284 282 280 280 280 281 282 282 281
275 276 277 276 277 281 282 280 286 285 290 293 294 295 292 295 297 298 311 319 315 315 314 310 309 305 303 302 300 300 300 296 292 290 288 287 284 281 281 281 280 280 281
271 270 270 271 273 276 277 278 279 276 274 279 282 281 283 288 294 287 293 303 307 311 308 309 308 309 305 303 302 300 298 298 295 292 290 288 286 284 284 283 278 277 279
267 267 266 268 270 271 269 270 275 274 271 271 268 267 270 275 282 287 296 300 300 304 304 306 308 305 304 302 301 299 296 295 294 294 293 292 291 287 289 289 282 278 279
264 266 267 265 265 265 267 268 273 271 270 269 265 262 264 269 274 281 291 298 301 298 296 299 301 302 300 298 299 300 301 300 298 297 296 295 291 289 286 285 285 284 283
261 264 265 264 264 264 264 264 269 269 266 269 269 264 262 267 272 278 285 290 295 297 296 300 300 301 299 297 294 295 296 298 299 299 298 294 291 288 286 285 285 284 283
258 260 262 265 264 262 262 261 265 270 269 274 273 269 264 267 271 274 281 284 289 294 297 301 301 303 301 297 297 296 295 295 296 296 297 295 291 289 287 287 287 284 282
258 260 262 263 262 263 263 264 264 267 270 271 268 268 266 266 269 272 276 281 285 290 294 296 297 299 298 298 298 297 295 296 297 297 297 295 292 289 288 287 286 285 282
259 259 260 261 260 262 261 262 263 265 268 269 267 270 272 268 267 270 273 277 282 286 288 291 294 296 296 295 297 298 295 295 295 295 296 294 293 291 291 290 287 285 283
259 259 258 259 258 259 258 259 260 263 267 268 265 265 268 271 270 271 273 275 278 282 286 289 291 292 292 292 294 295 295 294 293 293 293 292 291 290 288 288 288 286 284
258 257 256 256 257 256 255 257 257 260 264 263 261 263 265 268 270 273 275 278 278 280 284 288 289 290 290 290 291 292 293 291 291 291 291 290 289 287 285 286 285 284 285
257 256 255 254 255 255 255 256 255 257 259 260 260 262 264 266 269 273 275 279 281 280 283 285 287 289 289 289 290 290 290 289 288 289 290 291 291 288 286 285 283 283 283
256 254 254 252 253 253 254 255 254 256 257 259 260 262 264 267 271 274 276 278 279 281 282 284 286 287 287 289 289 289 289 289 289 289 290 289 289 289 286 284 282 281 281
257 254 252 252 253 255 255 255 255 257 259 258 259 262 264 268 272 274 275 278 279 282 283 283 282 283 285 288 289 288 287 288 289 290 290 289 289 288 287 284 283 282 281
257 255 253 252 252 254 256 257 257 257 258 258 259 261 265 269 272 273 275 276 279 281 282 282 281 282 283 285 287 288 287 288 290 290 289 289 289 287 285 284 284 284 282
256 255 254 252 253 254 256 258 258 258 258 258 260 261 265 269 272 273 274 275 276 278 280 280 280 281 283 285 286 287 287 288 290 290 290 290 288 286 284 283 284 284 284
256 255 252 251 253 255 256 257 259 258 258 259 259 261 264 268 271 273 272 274 275 275 277 278 279 281 282 283 285 286 287 288 288 289 290 289 286 285 284 284 285 284 284
256 255 253 252 253 255 258 259 260 258 258 259 260 261 264 267 268 271 272 274 276 277 278 278 279 281 281 282 283 285 286 287 287 287 288 287 285 284 285 286 285 285 285
255 254 253 254 254 256 257 258 259 259 259 260 262 263 264 267 270 271 273 274 277 277 279 279 279 281 282 281 283 284 285 286 287 287 285 285 286 286 285 285 285 286 285
254 253 253 254 255 255 255 257 259 259 259 261 262 264 265 268 271 273 274 274 276 278 279 280 280 281 282 282 282 282 284 286 286 285 284 284 286 287 286 286 285 285 284
253 253 252 253 254 255 256 258 260 260 261 262 263 264 266 268 271 273 274 275 277 279 280 281 281 281 282 282 283 283 283 283 283 283 283 285 286 287 287 286 285 284 283
252 252 252 252 254 256 258 260 261 261 263 263 263 265 266 268 271 273 275 276 277 279 279 279 279 280 281 283 284 283 284 284 284 284 284 285 285 285 287 287 286 284 283
253 253 254 253 254 256 257 259 262 263 264 265 265 266 267 270 272 273 274 275 276 278 277 278 279 279 280 282 282 282 282 283 284 284 284 285 285 284 285 285 286 286 286
Height
5917 5916 5915 5914 5914 5913 5912 5911 5910 5909 5908 5908 5907 5906 5905 5905 5904 5904 5903 5903 5903 5903 5903 5903 5903 5902 5902 5902 5902 5902 5902 5902 5901 5901 5900 5900 5900 5899 5899 5899 5899 5898 5898
5917 5916 5915 5914 5914 5913 5912 5911 5910 5909 5908 5908 5907 5906 5906 5905 5905 5904 5904 5903 5903 5903 5903 5903 5902 5902 5902 5901 5901 5901 5900 5900 5899 5899 5898 5898 5898 5897 5897 5897 5896 5896 5896
5916 5915 5914 5914 5913 5912 5911 5910 5910 5909 5908 5907 5906 5906 5906 5905 5905 5905 5904 5903 5903 5902 5902 5902 5901 5901 5900 5900 5900 5899 5898 5898 5897 5897 5896 5896 5896 5895 5895 5894 5894 5894 5893
5915 5914 5913 5912 5912 5911 5910 5910 5909 5908 5908 5907 5907 5906 5906 5905 5905 5905 5904 5903 5902 5902 5901 5901 5900 5900 5899 5899 5898 5897 5897 5896 5896 5895 5894 5894 5893 5893 5892 5892 5891 5891 5890
5912 5912 5911 5911 5910 5910 5909 5908 5908 5908 5907 5907 5906 5906 5905 5905 5904 5904 5903 5902 5902 5901 5901 5900 5899 5898 5898 5897 5896 5896 5895 5894 5893 5893 5892 5891 5890 5890 5889 5889 5888 5888 5887
5910 5909 5909 5908 5908 5908 5907 5907 5907 5906 5906 5906 5905 5905 5904 5904 5903 5903 5902 5901 5901 5900 5899 5899 5898 5897 5896 5895 5895 5894 5893 5892 5891 5890 5889 5888 5888 5887 5886 5886 5885 5885 5884
5907 5906 5906 5906 5906 5905 5905 5905 5905 5905 5904 5904 5904 5903 5903 5902 5902 5901 5901 5900 5899 5899 5898 5897 5896 5895 5894 5894 5893 5892 5891 5890 5889 5887 5887 5886 5885 5884 5883 5882 5882 5881 5881
5903 5903 5903 5903 5903 5902 5902 5902 5902 5902 5902 5902 5902 5901 5901 5901 5900 5900 5899 5898 5898 5897 5896 5895 5894 5893 5892 5891 5890 5889 5888 5887 5886 5885 5884 5883 5882 5880 5880 5879 5878 5877 5877
5899 5899 5899 5899 5899 5899 5899 5899 5899 5899 5898 5899 5899 5899 5898 5898 5898 5897 5897 5896 5895 5894 5893 5892 5891 5890 5889 5888 5887 5886 5885 5884 5883 5881 5880 5879 5878 5877 5876 5875 5874 5874 5873
5894 5895 5895 5895 5895 5895 5896 5896 5896 5895 5895 5895 5895 5895 5895 5895 5895 5895 5894 5893 5893 5892 5890 5889 5888 5887 5886 5885 5884 5883 5881 5880 5879 5878 5876 5874 5873 5872 5871 5870 5869 5868 5868
5889 5889 5890 5890 5890 5891 5891 5891 5891 5891 5891 5892 5891 5891 5891 5891 5891 5891 5890 5890 5889 5888 5887 5886 5885 5884 5882 5881 5880 5879 5877 5876 5874 5873 5871 5870 5868 5867 5866 5865 5864 5863 5862
5883 5884 5884 5885 5885 5885 5886 5886 5887 5887 5887 5887 5887 5887 5887 5887 5887 5887 5886 5886 5885 5884 5883 5882 5881 5879 5878 5877 5875 5874 5872 5871 5869 5868 5866 5865 5863 5862 5860 5859 5858 5857 5856
5877 5877 5878 5879 5879 5880 5880 5881 5881 5882 5882 5882 5882 5882 5882 5882 5882 5882 5881 5881 5880 5879 5878 5877 5876 5874 5873 5872 5871 5869 5867 5866 5864 5862 5861 5859 5857 5856 5854 5853 5851 5851 5850
5869 5870 5871 5872 5872 5873 5874 5874 5875 5876 5876 5876 5877 5877 5877 5877 5877 5877 5876 5875 5874 5874 5873 5872 5870 5869 5867 5866 5865 5864 5862 5860 5858 5856 5854 5852 5851 5849 5847 5846 5845 5844 5843
5862 5863 5864 5864 5865 5866 5867 5867 5868 5869 5870 5870 5871 5871 5871 5871 5871 5871 5870 5870 5869 5868 5867 5866 5865 5863 5861 5860 5858 5857 5855 5853 5852 5850 5848 5845 5843 5842 5840 5839 5838 5836 5835
5854 5855 5856 5857 5857 5858 5859 5860 5861 5862 5863 5864 5864 5864 5865 5865 5865 5865 5864 5863 5862 5862 5861 5859 5858 5857 5855 5853 5851 5850 5848 5846 5844 5842 5840 5838 5836 5834 5832 5831 5830 5829 5828
5845 5846 5847 5849 5850 5851 5852 5853 5854 5854 5855 5856 5857 5857 5858 5858 5858 5858 5857 5856 5855 5854 5853 5852 5851 5850 5848 5846 5845 5842 5840 5838 5837 5834 5832 5830 5828 5826 5824 5823 5822 5820 5819
5836 5837 5839 5840 5841 5842 5844 5845 5845 5846 5847 5848 5849 5850 5850 5851 5850 5850 5849 5848 5847 5846 5845 5844 5843 5842 5840 5839 5837 5835 5832 5830 5828 5826 5823 5821 5820 5818 5816 5815 5813 5812 5811
5827 5828 5829 5831 5832 5834 5835 5836 5837 5838 5839 5840 5841 5841 5842 5842 5842 5841 5840 5839 5838 5837 5836 5836 5834 5833 5832 5830 5828 5826 5824 5822 5820 5817 5815 5813 5811 5809 5808 5806 5804 5803 5801
5817 5819 5820 5822 5824 5825 5826 5827 5828 5829 5830 5831 5831 5832 5833 5833 5832 5831 5830 5829 5828 5828 5827 5827 5825 5824 5823 5821 5819 5817 5815 5813 5811 5809 5806 5804 5802 5800 5798 5797 5795 5793 5792
5807 5809 5811 5813 5814 5816 5817 5818 5819 5820 5821 5821 5822 5823 5823 5823 5822 5821 5820 5820 5820 5819 5818 5817 5816 5814 5812 5811 5810 5808 5806 5803 5801 5799 5797 5794 5792 5790 5789 5787 5786 5784 5782
5797 5799 5801 5803 5804 5806 5807 5809 5810 5811 5811 5812 5812 5812 5813 5813 5812 5812 5811 5810 5810 5809 5808 5807 5806 5804 5802 5801 5800 5798 5796 5793 5791 5789 5787 5785 5783 5781 5779 5778 5776 5774 5772
5787 5789 5791 5793 5794 5796 5798 5799 5800 5800 5801 5802 5802 5802 5803 5803 5802 5802 5801 5801 5800 5799 5798 5797 5796 5795 5793 5791 5790 5788 5786 5783 5781 5779 5777 5775 5773 5771 5770 5768 5766 5764 5762
5777 5779 5781 5783 5785 5786 5788 5789 5789 5790 5791 5792 5792 5792 5792 5792 5792 5791 5791 5791 5790 5789 5788 5787 5786 5785 5784 5782 5780 5778 5776 5773 5771 5769 5767 5765 5764 5762 5760 5758 5756 5754 5752
5766 5769 5771 5773 5775 5776 5778 5779 5780 5780 5781 5781 5781 5782 5782 5782 5782 5781 5781 5781 5780 5779 5778 5777 5776 5775 5774 5772 5770 5768 5766 5764 5762 5760 5758 5756 5754 5752 5750 5748 5746 5744 5742
5757 5759 5761 5763 5765 5766 5767 5768 5769 5770 5771 5772 5772 5772 5772 5772 5772 5771 5771 5770 5770 5769 5768 5767 5766 5764 5763 5762 5760 5758 5756 5755 5753 5750 5748 5746 5744 5742 5740 5738 5736 5734 5733